Hourly Data Report for October 21, 2014

All times are specified in Local Standard Time (LST). Add 1 hour to adjust for Daylight Saving Time where and when it is observed.

ST LEONARD CS
NEW BRUNSWICK

47°09'28.050" N
67°49'55.014" W
245.00 m
810I001
71019
WIY

Download Data

Hourly Data (October 2014)
Hourly Data Report for October 21, 2014
Temp Definition
°C
Dew Point Temp Definition
°C
Rel Hum Definition
%
Wind Dir Definition
10's deg

Wind Spd Definition
km/h
Visibility Definition
km
Stn Press Definition
kPa
Hmdx Definition


Wind Chill Definition


Weather Definition


TIME
00:00 -1.7 -3.5 87 0 1   98.44   -2 LegendNANA
01:00 -1.9 -3.6 88 27 2   98.49   -3 LegendNANA
02:00 -2.0 -3.7 89 36 1   98.49   -2 LegendNANA
03:00 -2.8 -3.6 94 19 3   98.54   -4 LegendNANA
04:00 -1.8 -3.3 89 22 3   98.62   -3 LegendNANA
05:00 -2.0 -3.5 90 23 3   98.67   -3 LegendNANA
06:00 -2.2 -3.3 92 22 3   98.75   -3 LegendNANA
07:00 -3.8 -4.4 95 3 LegendMM   98.82     LegendNANA
08:00 -1.7 -3.4 88 0 1   98.88   -2 LegendNANA
09:00 1.5 -1.7 79 26 2   98.96     LegendNANA
10:00 3.6 -1.1 72 0 1   99.01     LegendNANA
11:00 4.6 -2.2 61 29 5   99.03     LegendNANA
12:00 5.8 -2.0 58 25 2   99.01     LegendNANA
13:00 7.4 -1.4 54 29 4   99.04     LegendNANA
14:00 7.2 -2.0 52 25 2   99.07     LegendNANA
15:00 7.5 -1.7 52 0 1   99.11     LegendNANA
16:00 7.5 -1.1 54   0   99.13     LegendNANA
17:00 6.6 0.2 64 16 3   99.23     LegendNANA
18:00 5.4 0.5 71 29 LegendMM   99.27     LegendNANA
19:00 4.6 0.9 77   0   99.34     LegendNANA
20:00 4.1 1.2 81 28 LegendMM   99.38     LegendNANA
21:00 2.8 0.7 86 36 2   99.41     LegendNANA
22:00 2.5 -0.1 83 3 2   99.51     LegendNANA
23:00 1.6 -1.4 80 3 1   99.58     LegendNANA

Notes on Data Quality.

Legend

  • E = Estimated
  • M = Missing
  • NA = Not Available
  • ‡ = Partner data that is not subject to review by the National Climate Archives
Date modified: